[[{"header":{"parameterUnit":"m.s-1","parameterCategory":1,"la1":30.2992,"la2":30.254,"lo1":-89.0895,"lo2":-89.0443,"dy":0.0025,"dx":0.0025,"nx":19,"ny":19,"refTime":"2026-03-31T21:00:00:Z","depth":0,"parameterNumber":2,"parameterNumberName":"U-component_of_WINDS"},"data":[0,0,0,-4.226,-4.2264,-4.2438,-4.2439,-4.2664,-4.2666,0,0,0,0,0,0,0,0,0,0,0,-4.2211,-4.2212,-4.226,-4.2264,-4.2438,-4.2439,-4.2664,-4.2666,0,0,0,0,0,0,0,0,0,0,0,-4.221,-4.2212,-4.2214,-4.2265,-4.2438,-4.2439,-4.2663,-4.2531,0,0,0,0,0,0,0,0,0,0,-4.2361,-4.2318,-4.2211,-4.2214,-4.2266,-4.2438,-4.2439,-4.2524,-4.2539,-4.2587,0,-4.2629,0,-4.2651,-4.2681,-4.2682,0,0,0,-4.2263,-4.2305,-4.2351,-4.2214,-4.2268,-4.2437,-4.2359,-4.2533,-4.2549,-4.2606,-4.2633,-4.2641,-4.2655,-4.2683,-4.2684,-4.2964,-4.2965,0,0,-4.2253,-4.2243,-4.2339,-4.2361,-4.2335,-4.2354,-4.2365,-4.2543,-4.2571,-4.2633,-4.2646,-4.2659,-4.2684,-4.2686,-4.2962,-4.2964,0,0,0,-4.2227,-4.2236,-4.2277,-4.2352,-4.2383,-4.2359,-4.2371,-4.2563,-4.2577,-4.2649,-4.2662,-4.2686,-4.2688,-4.2961,-4.2963,-4.302,0,0,0,-4.2221,-4.2221,-4.2273,-4.2268,-4.238,-4.2475,-4.2388,-4.2565,-4.2585,-4.266,-4.2686,-4.2691,-4.2959,-4.2962,-4.3015,-4.3048,0,0,0,-4.2199,-4.2218,-4.2244,-4.2267,-4.2342,-4.2473,-4.2497,-4.2569,-4.2593,-4.2682,-4.2691,-4.2958,-4.2961,-4.3011,-4.3041,-4.3118,0,0,0,-4.2172,-4.2293,-4.2245,-4.2385,-4.234,-4.2508,-4.2496,-4.2621,-4.2704,-4.2687,-4.296,-4.2963,-4.301,-4.3037,-4.3113,-4.3179,-4.3206,0,0,-4.2318,-4.231,-4.2393,-4.2356,-4.2528,-4.2482,-4.2663,-4.2749,-4.2767,-4.2897,-4.2904,-4.3017,-4.3041,-4.3117,-4.3365,-4.3386,0,0,0,-4.2436,-4.2495,-4.2544,-4.2623,-4.2692,-4.2754,-4.2813,-4.2845,-4.2956,-4.2832,-4.3067,-4.3081,-4.3126,-4.3158,-4.3176,-4.3215,-4.2978,-4.2977,-4.2977,-4.2627,-4.2644,-4.2783,-4.2821,-4.2898,-4.2959,-4.3023,-4.3076,-4.3071,-4.3126,-4.3164,-4.3312,-4.3349,-4.3363,-4.3403,-4.3202,-4.3202,-4.3203,-4.3203,-4.2842,-4.2928,-4.2919,-4.305,-4.3068,-4.3178,-4.3242,-4.3235,-4.334,-4.3285,-4.3326,-4.3263,-4.3386,-4.3422,-4.3207,-4.3206,-4.3206,-4.3205,-4.3205,-4.2967,-4.3011,-4.3049,-4.3165,-4.3253,-4.3289,-4.339,-4.3403,-4.3416,-4.3456,-4.3497,-4.3496,-4.3495,-4.3475,-4.3476,-4.3476,-4.3477,-4.3477,-4.3477,-4.308,-4.3121,-4.3205,-4.329,-4.3342,-4.3414,-4.3477,-4.353,-4.3591,-4.3592,-4.3592,-4.358,-4.3396,-4.3348,-4.3485,-4.3484,-4.3483,-4.3482,-4.3482,-4.3288,-4.3244,-4.3373,-4.3426,-4.3526,-4.3613,-4.3629,-4.3734,-4.378,-4.3829,-4.381,-4.3672,-4.3664,-4.365,-4.361,-4.3807,-4.3807,-4.3807,-4.3807,-4.3392,-4.339,-4.3525,-4.3609,-4.3693,-4.3721,-4.3866,-4.3918,-4.3963,-4.3992,-4.3967,-4.3916,-4.3901,-4.3901,-4.3882,-4.3844,-4.4097,-4.4097,-4.4098,-4.352,-4.3527,-4.3648,-4.3692,-4.3772,-4.3841,-4.3978,-4.4074,-4.4117,-4.411,-4.4015,-4.4003,-4.3921,-4.3894,-4.3881,-4.385,-4.3782,0,0]},{"header":{"parameterUnit":"m.s-1","parameterCategory":1,"la1":30.2992,"la2":30.254,"lo1":-89.0895,"lo2":-89.0443,"dy":0.0025,"dx":0.0025,"nx":19,"ny":19,"refTime":"2026-03-31T21:00:00:Z","depth":0,"parameterNumber":3,"parameterNumberName":"V-component_of_WINDS"},"data":[0,0,0,3.6392,3.6394,3.6516,3.6516,3.6674,3.6676,0,0,0,0,0,0,0,0,0,0,0,3.6358,3.6359,3.6392,3.6395,3.6516,3.6516,3.6674,3.6676,0,0,0,0,0,0,0,0,0,0,0,3.6357,3.6359,3.636,3.6395,3.6515,3.6516,3.6674,3.6581,0,0,0,0,0,0,0,0,0,0,3.6463,3.6434,3.6358,3.636,3.6396,3.6515,3.6516,3.6577,3.6587,3.6621,0,3.6652,0,3.6667,3.6687,3.6687,0,0,0,3.6393,3.6425,3.6456,3.636,3.6397,3.6515,3.646,3.6582,3.6594,3.6635,3.6654,3.666,3.6669,3.6688,3.6689,3.6894,3.6895,0,0,3.6386,3.6381,3.6448,3.6464,3.6445,3.6457,3.6464,3.6589,3.661,3.6655,3.6664,3.6672,3.6689,3.669,3.6893,3.6894,0,0,0,3.6368,3.6376,3.6404,3.6457,3.6479,3.646,3.6469,3.6604,3.6614,3.6665,3.6674,3.669,3.6692,3.6892,3.6893,3.694,0,0,0,3.6364,3.6365,3.6401,3.6399,3.6477,3.6543,3.6481,3.6605,3.662,3.6673,3.669,3.6693,3.689,3.6892,3.6937,3.6963,0,0,0,3.6349,3.6364,3.6382,3.6398,3.645,3.6541,3.6558,3.6609,3.6625,3.6687,3.6694,3.689,3.6892,3.6933,3.6958,3.7017,0,0,0,3.6332,3.642,3.6383,3.6485,3.6449,3.657,3.6557,3.6647,3.6706,3.6691,3.6891,3.6893,3.6932,3.6954,3.7014,3.7067,3.7088,0,0,3.644,3.6433,3.6494,3.6464,3.659,3.6552,3.6685,3.6743,3.6754,3.6846,3.6852,3.6938,3.6957,3.7016,3.7209,3.7225,0,0,0,3.6527,3.6571,3.6606,3.6662,3.6711,3.6755,3.6794,3.6816,3.6896,3.68,3.6975,3.6987,3.7022,3.7047,3.7062,3.7093,3.6904,3.6904,3.6904,3.6672,3.6683,3.6785,3.6811,3.6866,3.6908,3.6954,3.6991,3.6983,3.7025,3.7052,3.7168,3.7197,3.7208,3.7241,3.708,3.7081,3.7081,3.7081,3.6834,3.6899,3.6889,3.6985,3.6996,3.7077,3.7121,3.7113,3.7191,3.7147,3.7178,3.713,3.7227,3.7255,3.7085,3.7084,3.7084,3.7083,3.7083,3.6931,3.6964,3.6991,3.7076,3.7141,3.7164,3.7239,3.7246,3.7252,3.7283,3.7314,3.7313,3.7315,3.7297,3.7298,3.7298,3.7299,3.7299,3.7299,3.7021,3.705,3.7113,3.7174,3.7213,3.7265,3.7309,3.7348,3.7392,3.7391,3.7391,3.7381,3.7234,3.7197,3.7305,3.7304,3.7304,3.7303,3.7302,3.7182,3.7148,3.7245,3.7284,3.7358,3.7423,3.7431,3.751,3.7542,3.758,3.7564,3.7454,3.7446,3.7435,3.7405,3.756,3.756,3.756,3.756,3.7265,3.7263,3.7365,3.7428,3.749,3.7508,3.762,3.7656,3.7688,3.7709,3.7688,3.7648,3.7636,3.7636,3.762,3.7592,3.7792,3.7792,3.7792,3.7365,3.737,3.7463,3.7494,3.7553,3.7604,3.7709,3.7782,3.7811,3.7802,3.7726,3.7717,3.7653,3.7631,3.762,3.7595,3.7544,0,0]}]]